Regional Weather Roundup
Issued by NWS Kansas City/Pleasant Hill, MO

Home | Current Version | Previous Version | Graphics & Text | Print | Product List | Glossary Off
Versions: 1 2 3 4 5 6 7 8 9 10 11 12 13 14 15 16 17 18 19 20 21 22 23 24 25 26 27 28 29 30 31 32 33 34 35 36 37 38 39 40 41 42 43 44 45 46 47 48 49 50

000
ASUS43 KEAX 201610
RWREAX

WEATHER ROUNDUP FOR EASTERN KANSAS AND NORTHWEST MISSOURI
NATIONAL WEATHER SERVICE KANSAS CITY/PLEASANT HILL MO
1100 AM CDT WED AUG 20 2014

KSZ040-057-103>105-MOZ028-029-037-043-201700-
...KANSAS CITY METROPOLITAN AREA...

CITY           SKY/WX    TMP DP  RH WIND       PRES   REMARKS
K.C. INTL      MOSUNNY   85  72  65 SW14      29.89R HX  91
K.C. DOWNTOWN  SUNNY     88  71  57 SW13      29.88R HX  94
LEES SUMMIT    SUNNY     85  71  63 SW9       29.91R HX  90
OLATHE - IXD   SUNNY     87  70  56 S12       29.91S HX  92
OLATHE - OJC   SUNNY     85  70  60 SW10G20   29.90S
LAWRENCE       SUNNY     89  71  55 SW13      29.88S HX  95

$$

MOZ001>008-011>017-020>025-030>033-038>040-044>046-053-054-201700-
...NORTHERN AND CENTRAL MISSOURI...

CITY           SKY/WX    TMP DP  RH WIND       PRES   REMARKS
ST. JOSEPH     MOSUNNY   83  73  72 S9        29.87R
MOSBY          SUNNY     84  70  61 S5        29.89R
WHITEMAN AFB   MOSUNNY   85  63  47 SW14      29.92R
CLINTON        SUNNY     86  73  66 SW9       29.94R HX  93
SEDALIA        MOSUNNY   85  72  65 SW12G18   29.95R HX  91
WARSAW         NOT AVBL
MARSHALL       PTSUNNY   86  77  74 SW7       29.94R HX  97
CHILLICOTHE      N/A     82  73  74 VRB5      29.94R
MOBERLY        CLOUDY    82  72  69 N5        29.96R
KIRKSVILLE     CLOUDY    75  67  76 NE5       29.97R

$$

MOZ041-047>049-056>058-063>065-088>090-097-201700-
...EASTERN AND SOUTHERN MISSOURI...

CITY           SKY/WX    TMP DP  RH WIND       PRES   REMARKS
ST. LOUIS INTL CLOUDY    86  73  65 SW5       29.96R HX  93
SPIRIT OF STL  CLOUDY    84  73  69 W3        29.95R HX  90
COLUMBIA       CLOUDY    84  74  71 SW12      29.95R HX  91
JEFFERSON CITY CLOUDY    84  72  67 SW8       29.94R
MEXICO         CLOUDY    86  77  74 W9        29.95R HX  97
HANNIBAL       CLOUDY    81  72  74 W7        29.97R
ROLLA          PTSUNNY   83  72  69 SW7       29.97R
LEBANON        MOSUNNY   90  64  43 SW13      29.99S HX  91
OSAGE BEACH    MOSUNNY   86  70  58 SW9       29.95S HX  90
SPRINGFIELD    SUNNY     88  67  49 SW14      29.99R HX  91
BRANSON        MOSUNNY   90  68  48 SW14      30.03R HX  93
NEVADA         SUNNY     88  70  55 SW8G16    29.95S HX  92
JOPLIN         SUNNY     87  70  56 S17       29.97R HX  92
WEST PLAINS    SUNNY     85  69  58 W8        30.03R

$$

IAZ060-094-KSZ022-034>040-054-083-096-NEZ052-066-093-201700-
...KANSAS...SOUTHEAST NEBRASKA AND IOWA...

CITY           SKY/WX    TMP DP  RH WIND       PRES   REMARKS
TOPEKA         SUNNY     87  71  58 S10       29.87S HX  93
MANHATTAN      SUNNY     88  69  53 S13       29.84S HX  92
EMPORIA        SUNNY     87  68  52 S16       29.89S HX  90
CHANUTE        SUNNY     88  67  49 SW12      29.92S HX  91
WICHITA        MOSUNNY   87  66  49 S17       29.87R
OMAHA          CLOUDY    75  67  76 SE15      29.85S
LINCOLN        CLOUDY    85  67  54 SE6       29.83F
FALLS CITY     MOSUNNY   88  72  58 VRB5      29.85R HX  94
LAMONI           N/A     75  67  76 VRB6      29.93S
DES MOINES     LGT RAIN  69  65  86 SE9       29.88F

$$



USA.gov is the U.S. government's official web portal to all federal, state and local government web resources and services.